sat.trackr.live / text

‹ back to catalog

STARLINK-31712

NORAD 59491 · 2024-071H

PAYLOAD ACTIVE UNKNOWN

§ Identity

Operator
Country
US
Launch date
2024-04-13
Launch site
AFETR
Launch vehicle
Mass (kg)
RCS (m²)

Purposes: comms

External: N2YO · Heavens-Above · Gunter

§ Orbital elements

Epoch: 2026-09-21T04:40:03.785664Z

Period
94.27 min
Inclination
43.0007°
Eccentricity
0.0000696
Mean motion
15.27577681 rev/d
Perigee alt
482.6 km
Apogee alt
483.5 km
Semi-major
6,861.2 km
B*
6.2962e-5
RAAN
327.0440°
Arg perigee
254.4257°
Mean anomaly
105.6518°
Rev number
13,797

§ Raw data

STARLINK-317121 59491U 24071H   26264.19448826  .00001471  00000+0  62962-4 0  99952 59491  43.0007 327.0440 0000696 254.4257 105.6518 15.27577681137976

JSON: /api/v1/satellites/59491 · /tle

For live sub-satellite position, see the globe view (requires WebGL).

§ Visibility from observer

Set your observer location to see the next 7 days of passes ≥ 10°. The values pass through the URL so the page stays shareable.

No JS? Fill the form by hand. The geolocation button needs JavaScript.